This is the latest recevied weather packets stored in our database for station/object W8KHW. If no packets are shown the sender has not sent any weather packets the latest 10 day(s).
| Time | Temp. | Humidity | Pressure | Rain* | Wind** | Luminosity | Snow |
|---|---|---|---|---|---|---|---|
| 1778127550 | 5.56° C | 91% | 1014.9 hPa | 0 mm | - | - | - |
| 1778127050 | 5.56° C | 90% | 1015.2 hPa | 0 mm | - | - | - |
| 1778126550 | 5.56° C | 89% | 1015 hPa | 0 mm | - | - | - |
| 1778126050 | 6.11° C | 88% | 1015 hPa | 0 mm | - | - | - |
| 1778125549 | 6.11° C | 88% | 1015.2 hPa | 0 mm | - | - | - |
| 1778125049 | 6.11° C | 87% | 1015.1 hPa | 0 mm | - | - | - |
| 1778124549 | 6.67° C | 86% | 1015.2 hPa | 0 mm | - | - | - |
| 1778124048 | 6.67° C | 85% | 1015.2 hPa | 0 mm | - | - | - |
| 1778123548 | 6.67° C | 83% | 1015.2 hPa | 0 mm | - | - | - |
| 1778123048 | 7.22° C | 83% | 1015.4 hPa | 0 mm | - | - | - |
| 1778122547 | 7.22° C | 82% | 1015.3 hPa | 0 mm | - | - | - |
| 1778122047 | 7.22° C | 81% | 1015.3 hPa | 0 mm | - | - | - |
| 1778121547 | 7.78° C | 81% | 1015.2 hPa | 0 mm | - | - | - |
| 1778121047 | 7.78° C | 77% | 1015.2 hPa | 0 mm | - | - | - |
| 1778120546 | 8.33° C | 77% | 1015.1 hPa | 0 mm | - | - | - |
| 1778120046 | 8.89° C | 75% | 1014.9 hPa | 0 mm | - | - | - |
| 1778119546 | 9.44° C | 73% | 1014.9 hPa | 0 mm | - | - | - |
| 1778119046 | 9.44° C | 72% | 1014.8 hPa | 0 mm | - | - | - |
| 1778118546 | 10° C | 70% | 1014.7 hPa | 0 mm | - | - | - |
| 1778118046 | 10.56° C | 69% | 1014.8 hPa | 0 mm | - | - | - |
| 1778117545 | 10.56° C | 69% | 1014.8 hPa | 0 mm | - | - | - |
| 1778117045 | 10.56° C | 68% | 1014.7 hPa | 0 mm | - | - | - |
| 1778116545 | 10.56° C | 69% | 1014.5 hPa | 0 mm | - | - | - |
| 1778116045 | 10.56° C | 66% | 1014.6 hPa | 0 mm | - | - | - |
| 1778115545 | 11.11° C | 69% | 1014.2 hPa | 0 mm | - | - | - |
* Rain latest hour (hover to see other rain measurements)
** Current wind speed in m/s (hover to see current wind gust speed)